T7ZEM PABR-CYRB

Flight info

Callsign T7ZEM
Flight time N/A
Altitude 29000
Route BRW DCT 74N41 DCT 75N32 DCT 7598N
Aircraft TBM8/L-SDFGRWY/S

Departure

Time 2026-04-22 19:49
Airport Wiley Post Will Rogers Memorial Airport (PABR)

Arrival

Time N/A
Airport Resolute Bay Airport (CYRB)
Time Latitude Longitude Altitude Speed Heading
2026-04-22 19:37 71.28746 -156.76562 47 ft 0 kts 22°
2026-04-22 19:44 71.28753 -156.76567 47 ft 5 kts 315°
2026-04-22 19:44 71.28698 -156.76626 47 ft 12 kts 223°
2026-04-22 19:45 71.28658 -156.76765 48 ft 13 kts 259°
2026-04-22 19:45 71.28690 -156.77019 49 ft 13 kts 263°
2026-04-22 19:45 71.28689 -156.77311 50 ft 14 kts 270°
2026-04-22 19:45 71.28696 -156.77603 51 ft 14 kts 267°
2026-04-22 19:46 71.28694 -156.77901 51 ft 14 kts 270°
2026-04-22 19:46 71.28691 -156.78285 53 ft 13 kts 266°
2026-04-22 19:46 71.28687 -156.78471 53 ft 12 kts 261°
2026-04-22 19:46 71.28668 -156.78723 54 ft 11 kts 253°
2026-04-22 19:47 71.28649 -156.78946 55 ft 10 kts 254°
2026-04-22 19:47 71.28629 -156.79139 54 ft 9 kts 257°
2026-04-22 19:47 71.28617 -156.79291 54 ft 5 kts 242°
2026-04-22 19:47 71.28596 -156.79350 55 ft 3 kts 208°
2026-04-22 19:48 71.28593 -156.79355 57 ft 0 kts 199°
2026-04-22 19:48 71.28567 -156.79353 56 ft 16 kts 159°
2026-04-22 19:48 71.28550 -156.78741 54 ft 51 kts 92°
2026-04-22 19:48 71.28548 -156.77006 79 ft 104 kts 90°
2026-04-22 19:49 71.28520 -156.74456 283 ft 129 kts 88°
2026-04-22 19:49 71.28590 -156.71545 592 ft 144 kts 64°
2026-04-22 19:49 71.29389 -156.69720 903 ft 152 kts 14°
2026-04-22 19:49 71.30410 -156.68584 1255 ft 160 kts 29°
2026-04-22 19:50 71.31269 -156.66311 1559 ft 165 kts 48°
2026-04-22 19:50 71.31989 -156.63627 2123 ft 156 kts 50°
2026-04-22 19:50 71.32705 -156.60939 2463 ft 164 kts 50°
2026-04-22 19:50 71.33425 -156.58188 2933 ft 164 kts 50°
2026-04-22 19:51 71.34149 -156.55424 3385 ft 165 kts 50°
2026-04-22 19:51 71.34866 -156.52678 3841 ft 166 kts 50°
2026-04-22 19:51 71.35599 -156.49875 4277 ft 167 kts 50°
2026-04-22 19:51 71.36338 -156.47040 4709 ft 169 kts 50°
2026-04-22 19:52 71.37084 -156.44175 5146 ft 171 kts 50°
2026-04-22 19:52 71.37837 -156.41285 5557 ft 172 kts 50°
2026-04-22 19:52 71.38596 -156.38362 5973 ft 174 kts 50°
2026-04-22 19:52 71.39361 -156.35415 6388 ft 175 kts 51°
2026-04-22 19:53 71.40131 -156.32444 6807 ft 176 kts 51°
2026-04-22 19:53 71.40895 -156.29489 7195 ft 177 kts 51°
2026-04-22 19:53 71.41673 -156.26482 7588 ft 178 kts 51°
2026-04-22 19:53 71.42452 -156.23459 7981 ft 179 kts 52°
2026-04-22 19:54 71.43235 -156.20426 8374 ft 179 kts 52°
2026-04-22 19:54 71.44020 -156.17375 8770 ft 180 kts 52°
2026-04-22 19:54 71.44807 -156.14312 9162 ft 181 kts 52°
2026-04-22 19:54 71.45597 -156.11234 9556 ft 181 kts 52°
2026-04-22 19:55 71.46390 -156.08138 9939 ft 183 kts 52°
2026-04-22 19:55 71.47181 -156.05066 10377 ft 184 kts 52°
2026-04-22 19:55 71.47982 -156.01938 10822 ft 184 kts 52°
2026-04-22 19:55 71.48781 -155.98792 11252 ft 185 kts 52°
2026-04-22 19:56 71.49590 -155.95611 11684 ft 186 kts 52°
2026-04-22 19:56 71.50401 -155.92427 12113 ft 187 kts 52°
2026-04-22 19:56 71.51216 -155.89210 12547 ft 188 kts 52°
2026-04-22 19:56 71.52038 -155.85973 12978 ft 190 kts 52°
2026-04-22 19:57 71.52863 -155.82712 13411 ft 191 kts 52°
2026-04-22 19:57 71.53694 -155.79426 13839 ft 192 kts 53°
2026-04-22 19:57 71.54518 -155.76161 14260 ft 193 kts 53°
2026-04-22 19:57 71.55358 -155.72827 14644 ft 194 kts 53°
2026-04-22 19:58 71.56202 -155.69476 15013 ft 195 kts 53°
2026-04-22 19:58 71.57049 -155.66102 15389 ft 196 kts 53°
2026-04-22 19:58 71.57900 -155.62711 15763 ft 197 kts 53°
2026-04-22 19:58 71.58755 -155.59296 16138 ft 198 kts 53°
2026-04-22 19:59 71.59614 -155.55863 16509 ft 199 kts 53°
2026-04-22 20:00 71.64832 -155.34874 18713 ft 206 kts 54°
2026-04-22 20:00 71.65717 -155.31292 19036 ft 207 kts 54°
2026-04-22 20:01 71.66605 -155.27693 19346 ft 208 kts 54°
2026-04-22 20:01 71.67497 -155.24071 19651 ft 209 kts 54°
2026-04-22 20:01 71.68393 -155.20433 19959 ft 209 kts 54°
2026-04-22 20:01 71.69278 -155.16824 20261 ft 210 kts 55°
2026-04-22 20:02 71.70179 -155.13149 20563 ft 211 kts 55°
2026-04-22 20:02 71.71080 -155.09462 20865 ft 211 kts 54°
2026-04-22 20:02 71.71983 -155.05770 21163 ft 212 kts 55°
2026-04-22 20:02 71.72888 -155.02057 21463 ft 213 kts 55°
2026-04-22 20:03 71.73794 -154.98333 21757 ft 213 kts 55°
2026-04-22 20:03 71.74705 -154.94587 22051 ft 214 kts 55°
2026-04-22 20:03 71.75618 -154.90819 22338 ft 215 kts 55°
2026-04-22 20:03 71.76518 -154.87105 22906 ft 202 kts 55°
2026-04-22 20:04 71.77343 -154.83730 23572 ft 190 kts 56°
2026-04-22 20:04 71.78142 -154.80398 23856 ft 192 kts 56°
2026-04-22 20:04 71.78956 -154.77002 24169 ft 193 kts 56°
2026-04-22 20:04 71.79777 -154.73589 24416 ft 194 kts 56°
2026-04-22 20:05 71.80602 -154.70132 24656 ft 196 kts 55°
2026-04-22 20:05 71.81442 -154.66658 24893 ft 198 kts 55°
2026-04-22 20:05 71.82285 -154.63137 25135 ft 200 kts 55°
2026-04-22 20:05 71.83134 -154.59580 25364 ft 202 kts 55°
2026-04-22 20:06 71.83988 -154.55997 25603 ft 204 kts 55°
2026-04-22 20:06 71.84839 -154.52420 25829 ft 205 kts 55°
2026-04-22 20:06 71.85710 -154.48763 26058 ft 207 kts 54°
2026-04-22 20:06 71.86588 -154.45062 26286 ft 209 kts 54°
2026-04-22 20:07 71.87469 -154.41344 26507 ft 210 kts 54°
2026-04-22 20:07 71.88358 -154.37584 26729 ft 212 kts 54°
2026-04-22 20:07 71.89254 -154.33790 26949 ft 214 kts 54°
2026-04-22 20:07 71.90156 -154.29964 27167 ft 215 kts 54°
2026-04-22 20:08 71.91064 -154.26105 27381 ft 217 kts 54°
2026-04-22 20:08 71.91966 -154.22265 27590 ft 219 kts 54°
2026-04-22 20:08 71.92885 -154.18340 27800 ft 220 kts 54°
2026-04-22 20:08 71.93811 -154.14383 28008 ft 222 kts 54°
2026-04-22 20:09 71.94739 -154.10409 28234 ft 222 kts 54°
2026-04-22 20:09 71.95668 -154.06427 28479 ft 222 kts 54°
2026-04-22 20:09 71.96596 -154.02434 28676 ft 224 kts 54°
2026-04-22 20:09 71.97533 -153.98403 28879 ft 225 kts 54°
2026-04-22 20:10 71.98473 -153.94343 29080 ft 226 kts 54°
2026-04-22 20:10 71.99418 -153.90256 29278 ft 228 kts 54°
2026-04-22 20:10 72.00356 -153.86196 29469 ft 229 kts 54°
2026-04-22 20:10 72.01324 -153.81991 29491 ft 237 kts 54°
2026-04-22 20:11 72.02324 -153.77633 29496 ft 245 kts 54°
2026-04-22 20:11 72.03355 -153.73141 29503 ft 252 kts 54°
2026-04-22 20:11 72.04414 -153.68521 29497 ft 258 kts 54°
2026-04-22 20:11 72.05497 -153.63787 29497 ft 264 kts 54°
2026-04-22 20:12 72.06599 -153.58952 29488 ft 269 kts 54°
2026-04-22 20:12 72.07720 -153.54029 29490 ft 273 kts 54°
2026-04-22 20:12 72.08839 -153.49095 29496 ft 277 kts 54°
2026-04-22 20:12 72.10001 -153.43962 29492 ft 280 kts 54°
2026-04-22 20:13 72.11141 -153.38918 29494 ft 282 kts 54°
2026-04-22 20:13 72.12306 -153.33745 29491 ft 284 kts 54°
2026-04-22 20:13 72.13479 -153.28530 29489 ft 286 kts 54°
2026-04-22 20:13 72.14657 -153.23274 29479 ft 288 kts 54°
2026-04-22 20:14 72.15831 -153.18001 29495 ft 286 kts 55°
2026-04-22 20:14 72.16990 -153.12783 29488 ft 282 kts 54°
2026-04-22 20:14 72.18144 -153.07635 29479 ft 279 kts 55°
2026-04-22 20:14 72.19267 -153.02595 29478 ft 277 kts 55°
2026-04-22 20:15 72.20401 -152.97492 29483 ft 278 kts 55°
2026-04-22 20:15 72.21087 -152.94381 29483 ft 278 kts 55°
2026-04-22 20:15 72.21691 -152.91645 29474 ft 278 kts 55°
2026-04-22 20:15 72.22825 -152.86523 29467 ft 278 kts 55°